THY2JK HECA-LTFM

Flight info

Callsign THY2JK
Flight time N/A
Altitude 40000
Route HECA/05C CVO A16 DEGDI/N0481F410 DCT SENTO/N0480F400 Q777 RASDA M855 TOMBI UM855 SISPI
Aircraft A359/H-SDE2E3GHIJ3J4J5LM1ORWXY/LB1D1

Departure

Time 2026-05-06 15:38
Airport Cairo International Airport (HECA)

Arrival

Time N/A
Airport İstanbul Airport (LTFM)
Time Latitude Longitude Altitude Speed Heading
2026-05-06 15:26 30.10856 31.39849 380 ft 0 kts 75°
2026-05-06 15:32 30.10855 31.39847 380 ft 2 kts 75°
2026-05-06 15:32 30.10850 31.39818 380 ft 4 kts 88°
2026-05-06 15:32 30.10852 31.39788 380 ft 4 kts 108°
2026-05-06 15:32 30.10864 31.39762 380 ft 4 kts 144°
2026-05-06 15:33 30.10876 31.39755 380 ft 0 kts 165°
2026-05-06 15:34 30.10847 31.39763 380 ft 12 kts 165°
2026-05-06 15:35 30.10722 31.39800 380 ft 21 kts 166°
2026-05-06 15:35 30.10566 31.39847 380 ft 25 kts 165°
2026-05-06 15:35 30.10399 31.39842 380 ft 26 kts 221°
2026-05-06 15:35 30.10273 31.39684 380 ft 25 kts 229°
2026-05-06 15:36 30.10140 31.39588 380 ft 23 kts 158°
2026-05-06 15:36 30.10069 31.39651 380 ft 8 kts 139°
2026-05-06 15:36 30.10056 31.39664 380 ft 0 kts 139°
2026-05-06 15:37 30.10055 31.39665 380 ft 1 kts 139°
2026-05-06 15:37 30.10012 31.39722 381 ft 15 kts 117°
2026-05-06 15:37 30.10018 31.39887 377 ft 25 kts 61°
2026-05-06 15:37 30.10175 31.40098 380 ft 62 kts 49°
2026-05-06 15:38 30.10433 31.40443 384 ft 108 kts 49°
2026-05-06 15:38 30.11334 31.41644 458 ft 179 kts 47°
2026-05-06 15:38 30.12146 31.42722 1249 ft 175 kts 45°
2026-05-06 15:38 30.12961 31.43783 1991 ft 184 kts 44°
2026-05-06 15:39 30.14129 31.44524 2399 ft 204 kts 11°
2026-05-06 15:39 30.15619 31.44339 2755 ft 232 kts 338°
2026-05-06 15:39 30.17053 31.43362 3414 ft 245 kts 326°
2026-05-06 15:39 30.18456 31.42179 4173 ft 254 kts 324°
2026-05-06 15:40 30.19888 31.40947 5007 ft 258 kts 325°
2026-05-06 15:40 30.21333 31.39700 5956 ft 260 kts 324°
2026-05-06 15:40 30.22788 31.38448 6902 ft 262 kts 324°
2026-05-06 15:40 30.24269 31.37196 7753 ft 266 kts 324°
2026-05-06 15:41 30.25820 31.35995 8690 ft 270 kts 331°
2026-05-06 15:41 30.26166 31.35803 8888 ft 271 kts 336°